TWB736 RKPC-RKSS

Flight info

Callsign TWB736
Flight time 0h 38m
Altitude 25000
Route KAMI1W KAMIT Y722 OLMEN OLME2T
Aircraft B38M/L-VGDW/C

Departure

Time 2025-09-08 12:31
Airport Jeju International Airport (RKPC)

Arrival

Time 2025-09-08 13:10
Airport Gimpo International Airport (RKSS)
Time Latitude Longitude Altitude Speed Heading
2025-09-08 12:00 33.50902 126.49199 137 ft 0 kts 328°
2025-09-08 12:18 33.50904 126.49198 137 ft 0 kts 328°
2025-09-08 12:23 33.50929 126.49179 137 ft 9 kts 328°
2025-09-08 12:24 33.50907 126.49017 137 ft 13 kts 239°
2025-09-08 12:24 33.50794 126.48825 137 ft 14 kts 243°
2025-09-08 12:24 33.50744 126.48707 137 ft 20 kts 240°
2025-09-08 12:25 33.50573 126.48364 137 ft 18 kts 236°
2025-09-08 12:25 33.50913 126.49192 137 ft 3 kts 329°
2025-09-08 12:26 33.50867 126.48926 137 ft 23 kts 245°
2025-09-08 12:27 33.50596 126.48416 137 ft 26 kts 238°
2025-09-08 12:27 33.50394 126.48016 137 ft 32 kts 237°
2025-09-08 12:28 33.50212 126.47666 137 ft 25 kts 237°
2025-09-08 12:28 33.50119 126.47481 137 ft 27 kts 240°
2025-09-08 12:29 33.49916 126.47082 137 ft 29 kts 239°
2025-09-08 12:29 33.49955 126.46892 136 ft 14 kts 328°
2025-09-08 12:30 33.50019 126.46907 136 ft 25 kts 56°
2025-09-08 12:30 33.50789 126.48419 302 ft 160 kts 60°
2025-09-08 12:31 33.52869 126.51838 2948 ft 178 kts 40°
2025-09-08 12:31 33.54835 126.53962 4257 ft 208 kts 43°
2025-09-08 12:32 33.57167 126.56552 5483 ft 254 kts 42°
2025-09-08 12:32 33.58506 126.58056 6251 ft 270 kts 41°
2025-09-08 12:33 33.61402 126.61298 7949 ft 297 kts 41°
2025-09-08 12:33 33.64493 126.64772 9768 ft 310 kts 43°
2025-09-08 12:34 33.67821 126.68524 10761 ft 348 kts 42°
2025-09-08 12:34 33.72111 126.71603 11463 ft 377 kts
2025-09-08 12:35 33.80373 126.72403 12391 ft 417 kts
2025-09-08 12:35 33.83300 126.72710 12811 ft 425 kts
2025-09-08 12:36 33.89231 126.73336 13797 ft 430 kts
2025-09-08 12:36 33.95248 126.73969 14699 ft 436 kts
2025-09-08 12:37 34.01300 126.74604 16013 ft 444 kts
2025-09-08 12:37 34.07519 126.75263 17200 ft 453 kts
2025-09-08 12:38 34.12780 126.75815 18139 ft 459 kts
2025-09-08 12:38 34.17060 126.76265 18784 ft 465 kts
2025-09-08 12:39 34.28989 126.77531 20530 ft 468 kts
2025-09-08 12:39 34.35466 126.77719 21071 ft 475 kts
2025-09-08 12:40 34.38739 126.78355 21149 ft 478 kts
2025-09-08 12:40 34.48733 126.79621 21439 ft 483 kts
2025-09-08 12:41 34.52084 126.79989 21580 ft 485 kts
2025-09-08 12:41 34.58798 126.80707 21897 ft 487 kts
2025-09-08 12:42 34.65596 126.81433 22266 ft 489 kts
2025-09-08 12:42 34.72390 126.82163 22526 ft 491 kts
2025-09-08 12:43 34.82644 126.83263 22900 ft 495 kts
2025-09-08 12:43 34.86084 126.83632 23050 ft 495 kts
2025-09-08 12:44 34.92917 126.84304 23368 ft 494 kts 358°
2025-09-08 12:44 34.99806 126.85097 23438 ft 499 kts
2025-09-08 12:45 35.06687 126.85825 23659 ft 499 kts
2025-09-08 12:45 35.13626 126.86530 24067 ft 494 kts 358°
2025-09-08 12:46 35.20459 126.87311 24056 ft 500 kts
2025-09-08 12:46 35.27437 126.88106 24163 ft 505 kts
2025-09-08 12:47 35.37946 126.89249 24699 ft 505 kts
2025-09-08 12:47 35.41448 126.89630 24946 ft 504 kts
2025-09-08 12:48 35.48460 126.90398 24971 ft 507 kts 360°
2025-09-08 12:48 35.55474 126.91165 24934 ft 510 kts 360°
2025-09-08 12:49 35.62554 126.91938 24957 ft 511 kts 360°
2025-09-08 12:49 35.66098 126.92327 24973 ft 510 kts 360°
2025-09-08 12:50 35.76731 126.93493 24958 ft 511 kts 360°
2025-09-08 12:50 35.83788 126.94272 24914 ft 510 kts 360°
2025-09-08 12:51 35.90873 126.95051 24950 ft 511 kts 360°
2025-09-08 12:51 35.97977 126.95838 24962 ft 512 kts 360°
2025-09-08 12:52 36.05090 126.96626 24964 ft 512 kts 359°
2025-09-08 12:52 36.12169 126.97411 24978 ft 515 kts 359°
2025-09-08 12:53 36.19320 126.98205 24959 ft 516 kts 359°
2025-09-08 12:53 36.26468 126.99001 24951 ft 516 kts
2025-09-08 12:54 36.33535 126.99800 23668 ft 504 kts 360°
2025-09-08 12:54 36.40412 127.00259 22260 ft 489 kts 353°
2025-09-08 12:55 36.47174 127.00048 20798 ft 482 kts 353°
2025-09-08 12:55 36.53796 126.99813 19382 ft 474 kts 353°
2025-09-08 12:56 36.60325 126.99579 17776 ft 472 kts 353°
2025-09-08 12:56 36.66818 126.99349 16494 ft 460 kts 353°
2025-09-08 12:57 36.73030 126.99130 15989 ft 435 kts 354°
2025-09-08 12:57 36.78930 126.99085 14942 ft 411 kts 354°
2025-09-08 12:58 36.84468 126.99037 13846 ft 383 kts 355°
2025-09-08 12:58 36.89620 126.98993 13072 ft 356 kts 355°
2025-09-08 12:59 36.94383 126.98951 12219 ft 336 kts 355°
2025-09-08 12:59 36.98921 126.98913 11410 ft 317 kts 356°
2025-09-08 13:00 37.03237 126.98876 10695 ft 306 kts 356°
2025-09-08 13:00 37.07529 126.98841 9862 ft 309 kts 357°
2025-09-08 13:01 37.11809 126.98803 9069 ft 310 kts 358°
2025-09-08 13:01 37.16118 126.98765 8312 ft 310 kts 358°
2025-09-08 13:01 37.18276 126.98746 7928 ft 309 kts 358°
2025-09-08 13:02 37.22580 126.98708 7175 ft 307 kts 358°
2025-09-08 13:03 37.28979 126.98652 5499 ft 307 kts 358°
2025-09-08 13:03 37.33181 126.98612 4590 ft 291 kts 358°
2025-09-08 13:04 37.37005 126.98564 4098 ft 262 kts 358°
2025-09-08 13:04 37.40313 126.97988 3878 ft 227 kts 331°
2025-09-08 13:05 37.42572 126.95527 3387 ft 212 kts 314°
2025-09-08 13:05 37.44611 126.92951 2911 ft 196 kts 315°
2025-09-08 13:06 37.46388 126.90724 2410 ft 165 kts 314°
2025-09-08 13:06 37.47142 126.89776 2281 ft 150 kts 317°
2025-09-08 13:07 37.49314 126.87056 1630 ft 147 kts 316°
2025-09-08 13:07 37.50752 126.85220 1210 ft 147 kts 316°
2025-09-08 13:08 37.52197 126.83397 816 ft 146 kts 315°
2025-09-08 13:08 37.53577 126.81649 450 ft 144 kts 316°
2025-09-08 13:09 37.54996 126.79863 84 ft 143 kts 314°
2025-09-08 13:09 37.56046 126.78545 62 ft 46 kts 318°
2025-09-08 13:09 37.56213 126.78397 64 ft 31 kts 335°
2025-09-08 13:10 37.56587 126.78482 68 ft 19 kts 46°
2025-09-08 13:11 37.56555 126.78764 64 ft 23 kts 135°
2025-09-08 13:11 37.56306 126.79084 65 ft 27 kts 134°
2025-09-08 13:12 37.56023 126.79438 64 ft 31 kts 135°
2025-09-08 13:12 37.55913 126.79801 69 ft 17 kts 100°
2025-09-08 13:13 37.55825 126.80050 67 ft 9 kts 133°
2025-09-08 13:13 37.55726 126.79994 59 ft 0 kts 225°
2025-09-08 13:13 37.55721 126.79988 69 ft 0 kts 225°